owner,sensor,date,latitude,longitude,vertical_datum,direction_of_sea_water_velocity,sea_water_speed,upward_sea_water_velocity,qcFlag 
TABS,ioos:station:wmo:42043:1,2014-04-17T00:00:00Z,28.9818,-94.9186,2.0,240.7763038,22.75635516,-99999.0,'11111222,11111222,99999999' 
TABS,ioos:station:wmo:42043:1,2014-04-17T00:30:00Z,28.9818,-94.9186,2.0,245.9263914,24.68717278,-99999.0,'11111222,11111222,99999999' 
TABS,ioos:station:wmo:42043:1,2014-04-17T01:00:00Z,28.9818,-94.9186,2.0,249.5070322,22.19452635,-99999.0,'11111222,11111222,99999999' 
TABS,ioos:station:wmo:42043:1,2014-04-17T01:30:00Z,28.9818,-94.9186,2.0,243.7451325,23.10339369,-99999.0,'11111222,11111222,99999999' 
TABS,ioos:station:wmo:42043:1,2014-04-17T02:00:00Z,28.9818,-94.9186,2.0,251.2182126,22.48736756,-99999.0,'11111222,11111222,99999999' 
TABS,ioos:station:wmo:42043:1,2014-04-17T02:30:00Z,28.9818,-94.9186,2.0,250.2364409,21.1455078,-99999.0,'11111222,11111222,99999999' 
TABS,ioos:station:wmo:42043:1,2014-04-17T03:00:00Z,28.9818,-94.9186,2.0,255.7483764,21.9763077,-99999.0,'11111222,11111222,99999999' 
TABS,ioos:station:wmo:42043:1,2014-04-17T03:30:00Z,28.9818,-94.9186,2.0,256.33954,21.4260589,-99999.0,'11111222,11111222,99999999' 
TABS,ioos:station:wmo:42043:1,2014-04-17T04:00:00Z,28.9818,-94.9186,2.0,261.5790786,19.53054019,-99999.0,'11111222,11111222,99999999' 
TABS,ioos:station:wmo:42043:1,2014-04-17T04:30:00Z,28.9818,-94.9186,2.0,268.260587,21.08971313,-99999.0,'11111222,11111222,99999999' 
TABS,ioos:station:wmo:42043:1,2014-04-17T05:00:00Z,28.9818,-94.9186,2.0,273.1754428,19.8604859,-99999.0,'11111222,11111222,99999999' 
TABS,ioos:station:wmo:42043:1,2014-04-17T05:30:00Z,28.9818,-94.9186,2.0,278.7715766,15.67329576,-99999.0,'11111222,11111222,99999999' 
TABS,ioos:station:wmo:42043:1,2014-04-17T06:00:00Z,28.9818,-94.9186,2.0,285.2899226,17.52011415,-99999.0,'11111222,11111222,99999999' 
TABS,ioos:station:wmo:42043:1,2014-04-17T06:30:00Z,28.9818,-94.9186,2.0,276.9305382,20.0565326,-99999.0,'11111222,11111222,99999999' 
TABS,ioos:station:wmo:42043:1,2014-04-17T07:00:00Z,28.9818,-94.9186,2.0,280.8800875,18.54330337,-99999.0,'11111222,11111222,99999999' 
TABS,ioos:station:wmo:42043:1,2014-04-17T07:30:00Z,28.9818,-94.9186,2.0,287.0937299,17.9634991,-99999.0,'11111222,11111222,99999999' 
TABS,ioos:station:wmo:42043:1,2014-04-17T08:00:00Z,28.9818,-94.9186,2.0,265.8927099,15.35944009,-99999.0,'11111222,11111222,99999999' 
TABS,ioos:station:wmo:42043:1,2014-04-17T08:30:00Z,28.9818,-94.9186,2.0,275.2702227,17.202712,-99999.0,'11111222,11111222,99999999' 
TABS,ioos:station:wmo:42043:1,2014-04-17T09:00:00Z,28.9818,-94.9186,2.0,271.0381614,18.77307913,-99999.0,'11111222,11111222,99999999' 
TABS,ioos:station:wmo:42043:1,2014-04-17T09:30:00Z,28.9818,-94.9186,2.0,269.0104,20.85310768,-99999.0,'11111222,11111222,99999999' 
TABS,ioos:station:wmo:42043:1,2014-04-17T10:00:00Z,28.9818,-94.9186,2.0,260.4749334,21.15158623,-99999.0,'11111222,11111222,99999999' 
TABS,ioos:station:wmo:42043:1,2014-04-17T10:30:00Z,28.9818,-94.9186,2.0,250.0293205,19.1196705,-99999.0,'11111222,11111222,99999999' 
TABS,ioos:station:wmo:42043:1,2014-04-17T11:00:00Z,28.9818,-94.9186,2.0,256.4510353,21.08681104,-99999.0,'11111222,11111222,99999999' 
TABS,ioos:station:wmo:42043:1,2014-04-17T11:30:00Z,28.9818,-94.9186,2.0,242.296073,24.75816027,-99999.0,'11111222,11111222,99999999' 
TABS,ioos:station:wmo:42043:1,2014-04-17T12:00:00Z,28.9818,-94.9186,2.0,243.2552966,22.86614309,-99999.0,'11111222,11111222,99999999' 
TABS,ioos:station:wmo:42043:1,2014-04-17T12:30:00Z,28.9818,-94.9186,2.0,243.9377222,24.44563765,-99999.0,'11111222,11111222,99999999' 
TABS,ioos:station:wmo:42043:1,2014-04-17T13:00:00Z,28.9818,-94.9186,2.0,239.260612,26.23605534,-99999.0,'11111222,11111222,99999999' 
TABS,ioos:station:wmo:42043:1,2014-04-17T13:30:00Z,28.9818,-94.9186,2.0,236.1550282,23.64695541,-99999.0,'11111222,11111222,99999999' 
TABS,ioos:station:wmo:42043:1,2014-04-17T14:00:00Z,28.9818,-94.9186,2.0,236.5388924,26.33460271,-99999.0,'11111222,11111222,99999999' 
TABS,ioos:station:wmo:42043:1,2014-04-17T14:30:00Z,28.9818,-94.9186,2.0,233.5535835,25.95671012,-99999.0,'11111222,11111222,99999999' 
TABS,ioos:station:wmo:42043:1,2014-04-17T15:00:00Z,28.9818,-94.9186,2.0,246.8601714,24.17484023,-99999.0,'11111222,11111222,99999999' 
TABS,ioos:station:wmo:42043:1,2014-04-17T15:30:00Z,28.9818,-94.9186,2.0,237.2732321,27.37555296,-99999.0,'11111222,11111222,99999999' 
TABS,ioos:station:wmo:42043:1,2014-04-17T16:00:00Z,28.9818,-94.9186,2.0,233.4510483,26.75042056,-99999.0,'11111222,11111222,99999999' 
TABS,ioos:station:wmo:42043:1,2014-04-17T16:30:00Z,28.9818,-94.9186,2.0,244.6250842,24.9688526,-99999.0,'11111222,11111222,99999999' 
TABS,ioos:station:wmo:42043:1,2014-04-17T17:00:00Z,28.9818,-94.9186,2.0,235.900815,26.43491063,-99999.0,'11111222,11111222,99999999' 
TABS,ioos:station:wmo:42043:1,2014-04-17T17:30:00Z,28.9818,-94.9186,2.0,239.5440377,23.39847217,-99999.0,'11111222,11111222,99999999' 
TABS,ioos:station:wmo:42043:1,2014-04-17T18:00:00Z,28.9818,-94.9186,2.0,238.479496,25.78431306,-99999.0,'11111222,11111222,99999999' 
TABS,ioos:station:wmo:42043:1,2014-04-17T18:30:00Z,28.9818,-94.9186,2.0,245.1453452,24.26768221,-99999.0,'11111222,11111222,99999999' 
TABS,ioos:station:wmo:42043:1,2014-04-17T19:00:00Z,28.9818,-94.9186,2.0,232.4429709,29.36610972,-99999.0,'11111222,11111222,99999999' 
TABS,ioos:station:wmo:42043:1,2014-04-17T19:30:00Z,28.9818,-94.9186,2.0,233.2823522,30.04010652,-99999.0,'11111222,11111222,99999999' 
TABS,ioos:station:wmo:42043:1,2014-04-17T20:00:00Z,28.9818,-94.9186,2.0,234.4115886,30.39760681,-99999.0,'11111222,11111222,99999999' 
TABS,ioos:station:wmo:42043:1,2014-04-17T20:30:00Z,28.9818,-94.9186,2.0,235.9015969,30.77,-99999.0,'11111222,11111222,99999999' 
TABS,ioos:station:wmo:42043:1,2014-04-17T21:00:00Z,28.9818,-94.9186,2.0,229.5242716,34.06141806,-99999.0,'11111222,11111222,99999999' 
TABS,ioos:station:wmo:42043:1,2014-04-17T21:30:00Z,28.9818,-94.9186,2.0,233.4976757,33.63869349,-99999.0,'11111222,11111222,99999999' 
TABS,ioos:station:wmo:42043:1,2014-04-17T22:00:00Z,28.9818,-94.9186,2.0,230.5374234,33.11989432,-99999.0,'11111222,11111222,99999999' 
TABS,ioos:station:wmo:42043:1,2014-04-17T22:30:00Z,28.9818,-94.9186,2.0,235.8562099,39.60683401,-99999.0,'11111222,11111222,99999999' 
TABS,ioos:station:wmo:42043:1,2014-04-17T23:00:00Z,28.9818,-94.9186,2.0,232.9212754,40.12226564,-99999.0,'11111222,11111222,99999999' 
TABS,ioos:station:wmo:42043:1,2014-04-17T23:30:00Z,28.9818,-94.9186,2.0,235.9558943,41.3342727,-99999.0,'11111222,11111222,99999999' 
TABS,ioos:station:wmo:42043:1,2014-04-18T00:00:00Z,28.9818,-94.9186,2.0,231.0188206,45.9892096,-99999.0,'11111222,11111222,99999999' 
TABS,ioos:station:wmo:42043:1,2014-04-18T00:30:00Z,28.9818,-94.9186,2.0,229.7746314,44.59644044,-99999.0,'11111222,11111222,99999999' 
TABS,ioos:station:wmo:42043:1,2014-04-18T01:00:00Z,28.9818,-94.9186,2.0,230.2583268,46.83079863,-99999.0,'11111222,11111222,99999999' 
TABS,ioos:station:wmo:42043:1,2014-04-18T01:30:00Z,28.9818,-94.9186,2.0,230.6729232,46.42267226,-99999.0,'11111222,11111222,99999999' 
TABS,ioos:station:wmo:42043:1,2014-04-18T02:00:00Z,28.9818,-94.9186,2.0,230.4150824,43.15643173,-99999.0,'11111222,11111222,99999999' 
TABS,ioos:station:wmo:42043:1,2014-04-18T02:30:00Z,28.9818,-94.9186,2.0,227.7160538,42.67234467,-99999.0,'11111222,11111222,99999999' 
TABS,ioos:station:wmo:42043:1,2014-04-18T03:00:00Z,28.9818,-94.9186,2.0,231.7725247,46.94717137,-99999.0,'11111222,11111222,99999999' 
TABS,ioos:station:wmo:42043:1,2014-04-18T03:30:00Z,28.9818,-94.9186,2.0,229.6391641,43.3604428,-99999.0,'11111222,11111222,99999999' 
TABS,ioos:station:wmo:42043:1,2014-04-18T04:00:00Z,28.9818,-94.9186,2.0,235.1099739,42.65747414,-99999.0,'11111222,11111222,99999999' 
TABS,ioos:station:wmo:42043:1,2014-04-18T04:30:00Z,28.9818,-94.9186,2.0,239.8137465,40.93019423,-99999.0,'11111222,11111222,99999999' 
TABS,ioos:station:wmo:42043:1,2014-04-18T05:00:00Z,28.9818,-94.9186,2.0,240.5702329,39.19805097,-99999.0,'11111222,11111222,99999999' 
TABS,ioos:station:wmo:42043:1,2014-04-18T05:30:00Z,28.9818,-94.9186,2.0,241.7366984,35.92255141,-99999.0,'11111222,11111222,99999999' 
TABS,ioos:station:wmo:42043:1,2014-04-18T06:00:00Z,28.9818,-94.9186,2.0,235.4273758,30.0821841,-99999.0,'11111222,11111222,99999999' 
TABS,ioos:station:wmo:42043:1,2014-04-18T06:30:00Z,28.9818,-94.9186,2.0,229.0508807,35.23123898,-99999.0,'11111222,11111222,99999999' 
TABS,ioos:station:wmo:42043:1,2014-04-18T07:00:00Z,28.9818,-94.9186,2.0,217.5466183,37.06858778,-99999.0,'11111222,11111222,99999999' 
TABS,ioos:station:wmo:42043:1,2014-04-18T07:30:00Z,28.9818,-94.9186,2.0,236.4902698,31.66244463,-99999.0,'11111222,11111222,99999999' 
TABS,ioos:station:wmo:42043:1,2014-04-18T08:00:00Z,28.9818,-94.9186,2.0,239.4990522,26.51969268,-99999.0,'11111222,11111222,99999999' 
TABS,ioos:station:wmo:42043:1,2014-04-18T08:30:00Z,28.9818,-94.9186,2.0,240.0852977,28.93494946,-99999.0,'11111222,11111222,99999999' 
TABS,ioos:station:wmo:42043:1,2014-04-18T09:00:00Z,28.9818,-94.9186,2.0,227.460506,30.63182985,-99999.0,'11111222,11111222,99999999' 
TABS,ioos:station:wmo:42043:1,2014-04-18T09:30:00Z,28.9818,-94.9186,2.0,231.1493242,28.64711155,-99999.0,'11111222,11111222,99999999' 
TABS,ioos:station:wmo:42043:1,2014-04-18T10:00:00Z,28.9818,-94.9186,2.0,248.9486846,30.62378814,-99999.0,'11111222,11111222,99999999' 
TABS,ioos:station:wmo:42043:1,2014-04-18T10:30:00Z,28.9818,-94.9186,2.0,260.1243951,46.99631475,-99999.0,'11111222,11111222,99999999' 
TABS,ioos:station:wmo:42043:1,2014-04-18T11:00:00Z,28.9818,-94.9186,2.0,262.1861952,47.07706023,-99999.0,'11111222,11111222,99999999' 
TABS,ioos:station:wmo:42043:1,2014-04-18T11:30:00Z,28.9818,-94.9186,2.0,256.9771053,46.19814066,-99999.0,'11111222,11111222,99999999' 
TABS,ioos:station:wmo:42043:1,2014-04-18T12:00:00Z,28.9818,-94.9186,2.0,256.2491524,46.19390977,-99999.0,'11111222,11111222,99999999' 
TABS,ioos:station:wmo:42043:1,2014-04-18T12:30:00Z,28.9818,-94.9186,2.0,253.2569617,45.50921335,-99999.0,'11111222,11111222,99999999' 
TABS,ioos:station:wmo:42043:1,2014-04-18T13:00:00Z,28.9818,-94.9186,2.0,255.4036733,45.43636649,-99999.0,'11111222,11111222,99999999' 
TABS,ioos:station:wmo:42043:1,2014-04-18T13:30:00Z,28.9818,-94.9186,2.0,250.1315356,47.66727284,-99999.0,'11111222,11111222,99999999' 
TABS,ioos:station:wmo:42043:1,2014-04-18T14:00:00Z,28.9818,-94.9186,2.0,245.3640433,43.30140991,-99999.0,'11111222,11111222,99999999' 
TABS,ioos:station:wmo:42043:1,2014-04-18T14:30:00Z,28.9818,-94.9186,2.0,234.5964957,42.58395238,-99999.0,'11111222,11111222,99999999' 
TABS,ioos:station:wmo:42043:1,2014-04-18T15:00:00Z,28.9818,-94.9186,2.0,227.0005096,39.89807639,-99999.0,'11111222,11111222,99999999' 
TABS,ioos:station:wmo:42043:1,2014-04-18T15:30:00Z,28.9818,-94.9186,2.0,222.8685422,38.79042408,-99999.0,'11111222,11111222,99999999' 
TABS,ioos:station:wmo:42043:1,2014-04-18T16:00:00Z,28.9818,-94.9186,2.0,219.2131876,37.17109092,-99999.0,'11111222,11111222,99999999' 
TABS,ioos:station:wmo:42043:1,2014-04-18T16:30:00Z,28.9818,-94.9186,2.0,236.5879083,62.23532277,-99999.0,'11111222,11111222,99999999' 
TABS,ioos:station:wmo:42043:1,2014-04-18T17:00:00Z,28.9818,-94.9186,2.0,237.3278461,62.42749795,-99999.0,'11111222,11111222,99999999' 
TABS,ioos:station:wmo:42043:1,2014-04-18T17:30:00Z,28.9818,-94.9186,2.0,230.2534748,63.01338429,-99999.0,'11111222,11111222,99999999' 
TABS,ioos:station:wmo:42043:1,2014-04-18T18:00:00Z,28.9818,-94.9186,2.0,224.5515436,65.99629459,-99999.0,'11111222,11111222,99999999' 
TABS,ioos:station:wmo:42043:1,2014-04-18T18:30:00Z,28.9818,-94.9186,2.0,221.6657223,65.90075113,-99999.0,'11111222,11111222,99999999' 
TABS,ioos:station:wmo:42043:1,2014-04-18T19:00:00Z,28.9818,-94.9186,2.0,222.1502164,61.02098082,-99999.0,'11111222,11111222,99999999' 
TABS,ioos:station:wmo:42043:1,2014-04-18T19:30:00Z,28.9818,-94.9186,2.0,218.2503159,56.85650798,-99999.0,'11111222,11111222,99999999' 
TABS,ioos:station:wmo:42043:1,2014-04-18T20:00:00Z,28.9818,-94.9186,2.0,217.9608545,54.81794232,-99999.0,'11111222,11111222,99999999' 
TABS,ioos:station:wmo:42043:1,2014-04-18T20:30:00Z,28.9818,-94.9186,2.0,217.8054033,47.1462883,-99999.0,'11111222,11111222,99999999' 
TABS,ioos:station:wmo:42043:1,2014-04-18T21:00:00Z,28.9818,-94.9186,2.0,220.9797654,50.53396976,-99999.0,'11111222,11111222,99999999' 
TABS,ioos:station:wmo:42043:1,2014-04-18T21:30:00Z,28.9818,-94.9186,2.0,226.053295,56.52860249,-99999.0,'11111222,11111222,99999999' 
TABS,ioos:station:wmo:42043:1,2014-04-18T22:00:00Z,28.9818,-94.9186,2.0,221.3736566,58.47458337,-99999.0,'11111222,11111222,99999999' 
TABS,ioos:station:wmo:42043:1,2014-04-18T22:30:00Z,28.9818,-94.9186,2.0,224.2912848,55.47676721,-99999.0,'11111222,11111222,99999999' 
TABS,ioos:station:wmo:42043:1,2014-04-18T23:00:00Z,28.9818,-94.9186,2.0,229.1581433,62.60234181,-99999.0,'11111222,11111222,99999999' 
TABS,ioos:station:wmo:42043:1,2014-04-18T23:30:00Z,28.9818,-94.9186,2.0,222.6424397,61.71900923,-99999.0,'11111222,11111222,99999999' 
TABS,ioos:station:wmo:42043:1,2014-04-19T00:00:00Z,28.9818,-94.9186,2.0,224.8153228,59.33363717,-99999.0,'11111222,11111222,99999999' 
TABS,ioos:station:wmo:42043:1,2014-04-19T00:30:00Z,28.9818,-94.9186,2.0,220.6314171,57.18721535,-99999.0,'11111222,11111222,99999999' 
TABS,ioos:station:wmo:42043:1,2014-04-19T01:00:00Z,28.9818,-94.9186,2.0,217.1264481,62.4606276,-99999.0,'11111222,11111222,99999999' 
TABS,ioos:station:wmo:42043:1,2014-04-19T01:30:00Z,28.9818,-94.9186,2.0,233.9818607,48.41535397,-99999.0,'11111222,11111222,99999999' 
TABS,ioos:station:wmo:42043:1,2014-04-19T02:00:00Z,28.9818,-94.9186,2.0,238.3826995,39.71479321,-99999.0,'11111222,11111222,99999999' 
TABS,ioos:station:wmo:42043:1,2014-04-19T02:30:00Z,28.9818,-94.9186,2.0,231.6041364,46.04832353,-99999.0,'11111222,11111222,99999999' 
TABS,ioos:station:wmo:42043:1,2014-04-19T03:00:00Z,28.9818,-94.9186,2.0,220.5655659,57.89441165,-99999.0,'11111222,11111222,99999999' 
TABS,ioos:station:wmo:42043:1,2014-04-19T03:30:00Z,28.9818,-94.9186,2.0,232.8882076,50.2844469,-99999.0,'11111222,11111222,99999999' 
TABS,ioos:station:wmo:42043:1,2014-04-19T04:00:00Z,28.9818,-94.9186,2.0,242.3219756,34.3166971,-99999.0,'11111222,11111222,99999999' 
TABS,ioos:station:wmo:42043:1,2014-04-19T04:30:00Z,28.9818,-94.9186,2.0,244.7020273,27.4969471,-99999.0,'11111222,11111222,99999999' 
TABS,ioos:station:wmo:42043:1,2014-04-19T05:00:00Z,28.9818,-94.9186,2.0,245.8045338,20.00756107,-99999.0,'11111222,11111222,99999999' 
TABS,ioos:station:wmo:42043:1,2014-04-19T05:30:00Z,28.9818,-94.9186,2.0,256.8838842,15.24775721,-99999.0,'11111222,11111222,99999999' 
TABS,ioos:station:wmo:42043:1,2014-04-19T06:00:00Z,28.9818,-94.9186,2.0,270.4171092,13.75036363,-99999.0,'11111222,11111222,99999999' 
TABS,ioos:station:wmo:42043:1,2014-04-19T06:30:00Z,28.9818,-94.9186,2.0,279.0063315,8.049229777,-99999.0,'11133222,11111222,99999999' 
TABS,ioos:station:wmo:42043:1,2014-04-19T07:00:00Z,28.9818,-94.9186,2.0,251.3894579,4.136278521,-99999.0,'11133222,11111222,99999999' 
TABS,ioos:station:wmo:42043:1,2014-04-19T07:30:00Z,28.9818,-94.9186,2.0,326.6896575,5.863309646,-99999.0,'11133222,11111222,99999999' 
TABS,ioos:station:wmo:42043:1,2014-04-19T08:00:00Z,28.9818,-94.9186,2.0,332.0658652,5.614133949,-99999.0,'11133222,11111222,99999999' 
TABS,ioos:station:wmo:42043:1,2014-04-19T08:30:00Z,28.9818,-94.9186,2.0,7.612130255,6.567876369,-99999.0,'11133222,11111222,99999999' 
TABS,ioos:station:wmo:42043:1,2014-04-19T09:00:00Z,28.9818,-94.9186,2.0,349.5474742,4.85049482,-99999.0,'11133222,11111222,99999999' 
TABS,ioos:station:wmo:42043:1,2014-04-19T09:30:00Z,28.9818,-94.9186,2.0,41.03746537,3.99055134,-99999.0,'11133222,11111222,99999999' 
TABS,ioos:station:wmo:42043:1,2014-04-19T10:00:00Z,28.9818,-94.9186,2.0,128.6597179,0.896437393,-99999.0,'11133222,11111222,99999999' 
TABS,ioos:station:wmo:42043:1,2014-04-19T10:30:00Z,28.9818,-94.9186,2.0,46.12973213,2.510717029,-99999.0,'11133222,11111222,99999999' 
TABS,ioos:station:wmo:42043:1,2014-04-19T11:00:00Z,28.9818,-94.9186,2.0,36.43923568,1.330037593,-99999.0,'11133222,11111222,99999999' 
TABS,ioos:station:wmo:42043:1,2014-04-19T11:30:00Z,28.9818,-94.9186,2.0,116.8961741,0.773692445,-99999.0,'11133222,11111222,99999999' 
TABS,ioos:station:wmo:42043:1,2014-04-19T12:00:00Z,28.9818,-94.9186,2.0,226.9035477,5.108130774,-99999.0,'11133222,11111222,99999999' 
TABS,ioos:station:wmo:42043:1,2014-04-19T12:30:00Z,28.9818,-94.9186,2.0,228.1190796,10.78521673,-99999.0,'11111222,11111222,99999999' 
TABS,ioos:station:wmo:42043:1,2014-04-19T13:00:00Z,28.9818,-94.9186,2.0,244.4157706,14.10271251,-99999.0,'11111222,11111222,99999999' 
TABS,ioos:station:wmo:42043:1,2014-04-19T13:30:00Z,28.9818,-94.9186,2.0,241.139999,15.41439587,-99999.0,'11111222,11111222,99999999' 
TABS,ioos:station:wmo:42043:1,2014-04-19T14:00:00Z,28.9818,-94.9186,2.0,237.5142278,15.43517088,-99999.0,'11111222,11111222,99999999' 
TABS,ioos:station:wmo:42043:1,2014-04-19T14:30:00Z,28.9818,-94.9186,2.0,242.9245931,19.09230473,-99999.0,'11111222,11111222,99999999' 
TABS,ioos:station:wmo:42043:1,2014-04-19T15:00:00Z,28.9818,-94.9186,2.0,256.0580059,66.07649582,-99999.0,'11111222,11111222,99999999' 
TABS,ioos:station:wmo:42043:1,2014-04-19T15:30:00Z,28.9818,-94.9186,2.0,251.961911,66.59284346,-99999.0,'11111222,11111222,99999999' 
TABS,ioos:station:wmo:42043:1,2014-04-19T16:00:00Z,28.9818,-94.9186,2.0,249.732396,70.12141256,-99999.0,'11111222,11111222,99999999' 
TABS,ioos:station:wmo:42043:1,2014-04-19T16:30:00Z,28.9818,-94.9186,2.0,248.2233014,67.87350956,-99999.0,'11111222,11111222,99999999' 
TABS,ioos:station:wmo:42043:1,2014-04-19T17:00:00Z,28.9818,-94.9186,2.0,249.8838596,61.99150345,-99999.0,'11111222,11111222,99999999' 
TABS,ioos:station:wmo:42043:1,2014-04-19T17:30:00Z,28.9818,-94.9186,2.0,247.2323235,59.48481235,-99999.0,'11111222,11111222,99999999' 
TABS,ioos:station:wmo:42043:1,2014-04-19T18:00:00Z,28.9818,-94.9186,2.0,250.9924338,64.90898628,-99999.0,'11111222,11111222,99999999' 
TABS,ioos:station:wmo:42043:1,2014-04-19T18:30:00Z,28.9818,-94.9186,2.0,255.0760347,70.6324189,-99999.0,'11111222,11111222,99999999' 
TABS,ioos:station:wmo:42043:1,2014-04-19T19:00:00Z,28.9818,-94.9186,2.0,255.4899877,72.801978,-99999.0,'11111222,11111222,99999999' 
TABS,ioos:station:wmo:42043:1,2014-04-19T19:30:00Z,28.9818,-94.9186,2.0,259.6282515,72.433446,-99999.0,'11111222,11111222,99999999' 
TABS,ioos:station:wmo:42043:1,2014-04-19T20:00:00Z,28.9818,-94.9186,2.0,256.4027286,71.16447007,-99999.0,'11111222,11111222,99999999' 
TABS,ioos:station:wmo:42043:1,2014-04-19T20:30:00Z,28.9818,-94.9186,2.0,256.7988171,70.19484668,-99999.0,'11111222,11111222,99999999' 
TABS,ioos:station:wmo:42043:1,2014-04-19T21:00:00Z,28.9818,-94.9186,2.0,257.4226621,69.71279653,-99999.0,'11111222,11111222,99999999' 
TABS,ioos:station:wmo:42043:1,2014-04-19T21:30:00Z,28.9818,-94.9186,2.0,256.5631719,67.65174351,-99999.0,'11111222,11111222,99999999' 
TABS,ioos:station:wmo:42043:1,2014-04-19T22:00:00Z,28.9818,-94.9186,2.0,258.3593677,64.97631645,-99999.0,'11111222,11111222,99999999' 
TABS,ioos:station:wmo:42043:1,2014-04-19T22:30:00Z,28.9818,-94.9186,2.0,258.1358927,62.69929585,-99999.0,'11111222,11111222,99999999' 
TABS,ioos:station:wmo:42043:1,2014-04-19T23:00:00Z,28.9818,-94.9186,2.0,254.8505585,62.0668712,-99999.0,'11111222,11111222,99999999' 
TABS,ioos:station:wmo:42043:1,2014-04-19T23:30:00Z,28.9818,-94.9186,2.0,255.3604863,63.38776933,-99999.0,'11111222,11111222,99999999' 
TABS,ioos:station:wmo:42043:1,2014-04-20T00:00:00Z,28.9818,-94.9186,2.0,252.7734362,61.76037727,-99999.0,'11111222,11111222,99999999' 
TABS,ioos:station:wmo:42043:1,2014-04-20T00:30:00Z,28.9818,-94.9186,2.0,249.9562177,59.25913432,-99999.0,'11111222,11111222,99999999' 
TABS,ioos:station:wmo:42043:1,2014-04-20T01:00:00Z,28.9818,-94.9186,2.0,248.5412709,57.37717403,-99999.0,'11111222,11111222,99999999' 
TABS,ioos:station:wmo:42043:1,2014-04-20T01:30:00Z,28.9818,-94.9186,2.0,248.3112073,56.49977345,-99999.0,'11111222,11111222,99999999' 
TABS,ioos:station:wmo:42043:1,2014-04-20T02:00:00Z,28.9818,-94.9186,2.0,242.5713379,59.07020399,-99999.0,'11111222,11111222,99999999' 
TABS,ioos:station:wmo:42043:1,2014-04-20T02:30:00Z,28.9818,-94.9186,2.0,242.8658719,55.86867459,-99999.0,'11111222,11111222,99999999' 
TABS,ioos:station:wmo:42043:1,2014-04-20T03:00:00Z,28.9818,-94.9186,2.0,241.7779631,56.92725182,-99999.0,'11111222,11111222,99999999' 
TABS,ioos:station:wmo:42043:1,2014-04-20T03:30:00Z,28.9818,-94.9186,2.0,236.3095903,56.57109951,-99999.0,'11111222,11111222,99999999' 
TABS,ioos:station:wmo:42043:1,2014-04-20T04:00:00Z,28.9818,-94.9186,2.0,234.1715758,56.64936452,-99999.0,'11111222,11111222,99999999' 
TABS,ioos:station:wmo:42043:1,2014-04-20T04:30:00Z,28.9818,-94.9186,2.0,232.9043696,54.39842093,-99999.0,'11111222,11111222,99999999' 
TABS,ioos:station:wmo:42043:1,2014-04-20T05:00:00Z,28.9818,-94.9186,2.0,231.8850095,53.67466628,-99999.0,'11111222,11111222,99999999' 
TABS,ioos:station:wmo:42043:1,2014-04-20T05:30:00Z,28.9818,-94.9186,2.0,233.3358662,50.04032374,-99999.0,'11111222,11111222,99999999' 
TABS,ioos:station:wmo:42043:1,2014-04-20T06:00:00Z,28.9818,-94.9186,2.0,231.735131,46.18168035,-99999.0,'11111222,11111222,99999999' 
TABS,ioos:station:wmo:42043:1,2014-04-20T06:30:00Z,28.9818,-94.9186,2.0,231.0967219,46.00295751,-99999.0,'11111222,11111222,99999999' 
TABS,ioos:station:wmo:42043:1,2014-04-20T07:00:00Z,28.9818,-94.9186,2.0,230.5807008,42.31587173,-99999.0,'11111222,11111222,99999999' 
TABS,ioos:station:wmo:42043:1,2014-04-20T07:30:00Z,28.9818,-94.9186,2.0,231.1562476,44.83459379,-99999.0,'11111222,11111222,99999999' 
TABS,ioos:station:wmo:42043:1,2014-04-20T08:00:00Z,28.9818,-94.9186,2.0,232.648127,43.77754676,-99999.0,'11111222,11111222,99999999' 
TABS,ioos:station:wmo:42043:1,2014-04-20T08:30:00Z,28.9818,-94.9186,2.0,231.677118,41.65538741,-99999.0,'11111222,11111222,99999999' 
TABS,ioos:station:wmo:42043:1,2014-04-20T09:00:00Z,28.9818,-94.9186,2.0,228.573087,43.22462377,-99999.0,'11111222,11111222,99999999' 
TABS,ioos:station:wmo:42043:1,2014-04-20T09:30:00Z,28.9818,-94.9186,2.0,229.0906106,43.4138342,-99999.0,'11111222,11111222,99999999' 
TABS,ioos:station:wmo:42043:1,2014-04-20T10:00:00Z,28.9818,-94.9186,2.0,226.9555537,41.02195022,-99999.0,'11111222,11111222,99999999' 
TABS,ioos:station:wmo:42043:1,2014-04-20T10:30:00Z,28.9818,-94.9186,2.0,226.6356736,39.62827526,-99999.0,'11111222,11111222,99999999' 
TABS,ioos:station:wmo:42043:1,2014-04-20T11:00:00Z,28.9818,-94.9186,2.0,225.6920129,38.03805069,-99999.0,'11111222,11111222,99999999' 
TABS,ioos:station:wmo:42043:1,2014-04-20T11:30:00Z,28.9818,-94.9186,2.0,223.8661284,37.17280727,-99999.0,'11111222,11111222,99999999' 
TABS,ioos:station:wmo:42043:1,2014-04-20T12:00:00Z,28.9818,-94.9186,2.0,224.283158,41.27705052,-99999.0,'11111222,11111222,99999999' 
TABS,ioos:station:wmo:42043:1,2014-04-20T12:30:00Z,28.9818,-94.9186,2.0,223.86138,41.28904213,-99999.0,'11111222,11111222,99999999' 
TABS,ioos:station:wmo:42043:1,2014-04-20T13:00:00Z,28.9818,-94.9186,2.0,221.5769884,47.37580817,-99999.0,'11111222,11111222,99999999' 
TABS,ioos:station:wmo:42043:1,2014-04-20T13:30:00Z,28.9818,-94.9186,2.0,218.2618858,45.68348717,-99999.0,'11111222,11111222,99999999' 
TABS,ioos:station:wmo:42043:1,2014-04-20T14:00:00Z,28.9818,-94.9186,2.0,218.6669025,48.39981095,-99999.0,'11111222,11111222,99999999' 
TABS,ioos:station:wmo:42043:1,2014-04-20T14:30:00Z,28.9818,-94.9186,2.0,220.536798,50.34308294,-99999.0,'11111222,11111222,99999999' 
TABS,ioos:station:wmo:42043:1,2014-04-20T15:00:00Z,28.9818,-94.9186,2.0,220.782198,53.84349357,-99999.0,'11111222,11111222,99999999' 
TABS,ioos:station:wmo:42043:1,2014-04-20T15:30:00Z,28.9818,-94.9186,2.0,220.4251724,53.72741944,-99999.0,'11111222,11111222,99999999' 
TABS,ioos:station:wmo:42043:1,2014-04-20T16:00:00Z,28.9818,-94.9186,2.0,216.8716689,55.41400004,-99999.0,'11111222,11111222,99999999' 